GW4372 Weather Reports


time (UTC)temp
F
wind
direction
speed
knots
gust
knots
rain 1hr
in
rain 24hr
in
rain mn
in
humidity
%
barometer
mb
20260504193119 86 162 1.7 2.6 0.00 0.00 0.00 58 1012.1
20260504192617 86 26 3.5 7.8 0.00 0.00 0.00 59 1012.0
20260504192115 86 194 1.7 2.6 0.00 0.00 0.00 60 1012.3
20260504191613 84 166 0.9 3.5 0.00 0.00 0.00 63 1012.1
20260504191109 84 104 3.5 5.2 0.00 0.00 0.00 62 1012.2
20260504190605 86 154 1.7 7.0 0.00 0.00 0.00 60 1012.4
20260504185559 86 182 0.9 2.6 0.00 0.00 0.00 59 1012.4
20260504185055 85 147 0.9 6.1 0.00 0.00 0.00 61 1012.6
20260504184551 83 189 2.6 6.1 0.00 0.00 0.00 61 1012.6
20260504184046 84 113 1.7 2.6 0.00 0.00 0.00 60 1012.8
20260504183544 84 177 0.9 7.8 0.00 0.00 0.00 61 1012.8
20260504183042 84 102 1.7 6.1 0.00 0.00 0.00 62 1012.9
20260504182539 86 343 2.6 2.6 0.00 0.00 0.00 60 1012.7
20260504182036 86 207 2.6 6.1 0.00 0.00 0.00 61 1012.8
20260504181532 86 184 0.9 8.7 0.00 0.00 0.00 58 1012.8
20260504181031 86 170 1.7 2.6 0.00 0.00 0.00 57 1013.1
20260504180529 85 183 1.7 3.5 0.00 0.00 0.00 60 1013.2
20260504180028 82 175 3.5 5.2 0.00 0.00 0.00 63 1013.2
20260504175525 84 157 1.7 6.1 0.00 0.00 0.00 61 1013.3
20260504175022 84 162 2.6 7.0 0.00 0.00 0.00 61 1013.1
20260504174519 84 91 5.2 7.0 0.00 0.00 0.00 61 1013.2
20260504174016 84 144 1.7 5.2 0.00 0.00 0.00 60 1013.5
20260504173513 85 143 3.5 6.1 0.00 0.00 0.00 58 1013.4
20260504173011 85 185 0.0 3.5 0.00 0.00 0.00 62 1013.6
20260504172506 85 181 0.0 1.7 0.00 0.00 0.00 61 1013.7
20260504172003 84 87 1.7 3.5 0.00 0.00 0.00 61 1013.7
20260504171500 84 138 1.7 7.0 0.00 0.00 0.00 61 1013.9
20260504170957 83 43 3.5 5.2 0.00 0.00 0.00 61 1013.8
20260504170453 82 156 0.9 6.1 0.00 0.00 0.00 62 1013.8
20260504160413 80 28 1.7 7.0 0.00 0.00 0.00 68 1014.7
20260504150837 78 13 3.5 7.0 0.00 0.00 0.00 74 1015.1
20260504150333 78 7 4.3 7.0 0.00 0.00 0.00 73 1015.2
20260504141303 77 174 0.9 1.7 0.00 0.00 0.00 76 1014.5
20260504140800 76 39 7.8 8.7 0.00 0.00 0.00 77 1014.6
20260504140255 76 233 0.9 3.5 0.00 0.00 0.00 78 1014.6
20260504130724 73 88 2.6 3.5 0.00 0.00 0.00 82 1014.2
20260504130220 73 202 1.7 6.1 0.00 0.00 0.00 82 1014.2
20260504120144 69 90 1.7 2.6 0.00 0.00 0.00 89 1013.9
20260504110612 68 117 1.7 2.6 0.00 0.00 0.00 92 1013.1
20260504110108 68 76 1.7 2.6 0.00 0.00 0.00 92 1013.2
20260504100534 68 159 1.7 1.7 0.00 0.00 0.00 96 1012.7
20260504081927 68 174 0.0 0.0 0.00 0.00 0.00 97 1012.6
20260504081424 68 174 0.0 0.0 0.00 0.00 0.00 96 1012.8
20260504080920 68 177 0.0 0.0 0.00 0.00 0.00 96 1013.2
20260504080417 69 173 0.0 0.0 0.00 0.00 0.00 95 1013.1
20260504070345 68 177 0.0 0.0 0.00 0.00 0.00 97 1013.4
20260504050732 68 170 0.9 1.7 0.00 0.00 0.00 99 1014.1
20260504050230 68 143 0.0 0.0 0.00 0.00 0.00 99 1014.4
20260504045727 68 175 0.0 0.0 0.00 0.00 0.00 99 1014.5
20260504045227 68 181 0.0 0.0 0.00 0.00 0.00 99 1014.7
20260504044725 68 184 0.0 0.0 0.00 0.00 0.00 99 1014.7
20260504044222 68 183 0.0 0.0 0.00 0.00 0.00 99 1014.6
20260504043719 68 175 0.0 0.0 0.00 0.00 0.00 99 1014.5
20260504043215 68 180 0.0 0.0 0.00 0.00 0.00 99 1014.6
20260504042713 68 182 0.0 0.0 0.00 0.00 0.00 99 1014.4
20260504042209 68 173 0.0 0.0 0.00 0.00 0.00 99 1014.5
20260504041705 68 171 0.0 0.0 0.00 0.00 0.00 99 1014.3
20260504041201 68 173 0.0 0.0 0.00 0.00 0.00 99 1014.4
20260504040658 68 157 0.0 0.0 0.00 0.00 0.00 99 1014.6
20260504040155 68 179 0.0 0.0 0.00 0.00 0.00 99 1014.6
20260504035652 68 177 0.0 0.0 0.00 0.09 0.09 99 1014.5
20260504035149 68 174 0.0 0.0 0.00 0.09 0.09 99 1014.6
20260504034647 68 176 0.0 0.0 0.00 0.09 0.09 99 1014.8
20260504034143 68 175 0.0 0.0 0.00 0.09 0.09 98 1014.5
20260504033641 68 177 0.0 0.0 0.00 0.09 0.09 98 1014.8
20260504033138 68 175 0.0 0.0 0.00 0.09 0.09 98 1014.7
20260504032635 68 151 0.0 0.9 0.00 0.09 0.09 97 1014.5
20260504032132 68 167 0.0 0.0 0.00 0.09 0.09 97 1014.4
20260504031629 69 178 0.0 0.0 0.00 0.09 0.09 96 1014.8
20260504031125 69 170 0.9 0.9 0.00 0.09 0.09 95 1014.5
20260504030622 70 137 1.7 2.6 0.07 0.09 0.09 94 1014.8
20260504030119 70 179 0.0 0.0 0.00 0.08 0.08 92 1014.7
20260504025616 70 190 0.0 0.0 0.00 0.08 0.08 92 1015.2
20260504025113 70 166 0.0 0.9 0.00 0.08 0.08 92 1015.2
20260504024610 70 147 0.9 0.9 0.00 0.08 0.08 92 1015.1
20260504024107 70 139 0.9 1.7 0.00 0.08 0.08 92 1015.1
20260504023603 70 174 0.0 0.9 0.00 0.08 0.08 92 1015.2
20260504023059 70 168 0.0 0.9 0.00 0.08 0.08 92 1015.2
20260504022555 70 159 0.9 0.9 0.00 0.08 0.08 92 1015.1
20260504022051 70 61 1.7 2.6 0.00 0.08 0.08 92 1015.1
20260504021549 70 169 0.0 0.9 0.00 0.08 0.08 91 1015.1
20260504021046 70 174 0.0 0.0 0.00 0.08 0.08 91 1014.7
20260504020543 70 169 0.0 0.0 0.00 0.08 0.08 91 1015.0
20260504020039 70 131 0.9 0.9 0.00 0.08 0.08 91 1014.8
20260504015536 70 170 0.9 0.9 0.00 0.08 0.08 91 1014.9
20260504015032 70 163 0.0 0.0 0.00 0.08 0.08 91 1014.8
20260504014528 70 172 0.0 0.0 0.00 0.08 0.08 91 1014.7
20260504014025 70 165 0.0 1.7 0.00 0.08 0.08 90 1014.7
20260504013523 70 165 0.0 0.9 0.00 0.08 0.08 90 1014.5
20260504013020 70 157 0.9 2.6 0.00 0.08 0.08 90 1014.5
20260504012517 70 109 1.7 2.6 0.00 0.08 0.08 91 1014.4
20260504012015 70 172 0.0 0.9 0.00 0.08 0.08 91 1014.3
20260504011511 70 171 0.0 0.0 0.00 0.08 0.08 91 1014.3
20260504011008 70 38 1.7 2.6 0.00 0.08 0.08 91 1014.3
20260504010503 70 124 1.7 3.5 0.00 0.08 0.08 91 1014.3
20260504005959 70 162 0.9 1.7 0.00 0.08 0.08 91 1014.3
20260504005456 70 35 0.9 1.7 0.00 0.08 0.08 91 1014.0
20260504004954 70 154 0.0 1.7 0.00 0.08 0.08 91 1014.0
20260504004451 70 162 0.0 0.9 0.00 0.08 0.08 92 1014.1
20260504003948 70 164 0.0 0.9 0.00 0.08 0.08 92 1013.9
20260504003444 70 187 0.0 0.9 0.00 0.08 0.08 92 1014.1
20260504002941 70 158 0.9 2.6 0.00 0.08 0.08 92 1014.1
20260504002438 70 159 0.9 1.7 0.00 0.08 0.08 92 1013.9
20260504001936 71 168 0.0 1.7 0.00 0.08 0.08 92 1014.0
20260504001433 71 170 0.0 0.9 0.00 0.08 0.08 91 1014.0
20260504000929 71 173 0.0 0.9 0.00 0.08 0.08 91 1013.8
20260504000426 71 140 1.7 3.5 0.00 0.08 0.08 92 1013.9
20260503235924 71 182 0.0 1.7 0.00 0.08 0.08 92 1013.9
20260503235422 71 177 0.0 0.9 0.00 0.08 0.08 91 1013.5
20260503234919 71 125 0.9 1.7 0.00 0.08 0.08 91 1013.5
20260503234416 71 253 0.9 1.7 0.00 0.08 0.08 91 1013.7
20260503233914 71 170 0.0 0.9 0.00 0.08 0.08 91 1013.4
20260503233410 71 162 0.9 2.6 0.00 0.08 0.08 91 1013.5
20260503232907 71 34 0.9 5.2 0.00 0.08 0.08 90 1013.7
20260503232404 71 73 1.7 3.5 0.00 0.08 0.08 90 1013.6
20260503231902 71 99 2.6 3.5 0.00 0.08 0.08 90 1013.5
20260503231359 71 115 1.7 2.6 0.00 0.08 0.08 90 1013.6
20260503230855 71 141 1.7 1.7 0.00 0.08 0.08 90 1013.6
20260503230352 71 190 0.9 1.7 0.00 0.08 0.08 90 1013.5
20260503225850 71 46 2.6 5.2 0.00 0.08 0.08 90 1013.4
20260503225345 71 64 5.2 6.1 0.00 0.08 0.08 91 1013.4
20260503224842 71 81 0.9 3.5 0.00 0.08 0.08 91 1013.3
20260503224339 71 359 1.7 2.6 0.00 0.08 0.08 92 1013.2
20260503223837 71 131 0.9 1.7 0.00 0.08 0.08 92 1013.2
20260503223334 71 103 1.7 6.1 0.00 0.08 0.08 93 1013.3
20260503222830 71 139 1.7 2.6 0.00 0.08 0.08 94 1013.4
20260503222328 71 170 0.9 1.7 0.00 0.08 0.08 94 1013.1
20260503221826 70 61 1.7 3.5 0.00 0.08 0.08 94 1013.2
20260503221325 70 113 0.9 1.7 0.00 0.08 0.08 94 1013.3
20260503220820 71 112 1.7 3.5 0.00 0.08 0.08 93 1013.3
20260503220317 71 150 0.9 3.5 0.00 0.08 0.08 93 1013.3
20260503215814 71 27 5.2 6.1 0.00 0.08 0.08 93 1013.4
20260503215311 71 12 3.5 5.2 0.00 0.08 0.08 93 1013.4
20260503214809 71 64 1.7 2.6 0.00 0.08 0.08 93 1013.5
20260503214306 71 70 0.9 1.7 0.00 0.08 0.08 93 1013.3
20260503213804 70 34 1.7 3.5 0.00 0.08 0.08 94 1013.4
20260503213301 70 160 0.9 0.9 0.00 0.08 0.08 95 1013.6
20260503212758 71 42 4.3 5.2 0.00 0.08 0.08 94 1013.7
20260503212255 71 134 0.9 2.6 0.00 0.08 0.08 94 1013.5
20260503211753 71 120 0.9 2.6 0.00 0.08 0.08 93 1013.6
20260503211249 71 122 1.7 2.6 0.00 0.08 0.08 92 1013.9
20260503210744 71 173 0.9 2.6 0.00 0.08 0.08 91 1013.8
20260503210242 71 173 0.9 1.7 0.00 0.08 0.08 91 1013.8
20260503205742 72 137 1.7 3.5 0.00 0.08 0.08 90 1013.8
20260503205239 72 30 4.3 6.1 0.00 0.08 0.08 90 1013.5
20260503204735 72 116 2.6 3.5 0.00 0.08 0.08 90 1013.8
20260503204233 72 117 1.7 5.2 0.00 0.08 0.08 90 1013.7
20260503203730 72 51 1.7 2.6 0.00 0.08 0.08 90 1013.7
20260503203228 72 38 3.5 5.2 0.00 0.08 0.08 90 1013.8
20260503202725 72 156 1.7 5.2 0.00 0.08 0.08 90 1013.7
20260503202222 72 46 2.6 5.2 0.00 0.08 0.08 89 1013.6
20260503201720 73 9 5.2 6.1 0.00 0.08 0.08 89 1013.5
20260503201217 72 25 2.6 3.5 0.00 0.08 0.08 89 1013.7
20260503200713 72 27 5.2 7.0 0.00 0.08 0.08 89 1013.7
20260503200210 73 21 5.2 6.1 0.00 0.08 0.08 88 1013.9
20260503195707 73 168 0.9 7.0 0.00 0.08 0.08 89 1013.8
20260503195204 72 75 3.5 5.2 0.00 0.08 0.08 89 1014.0
20260503194701 71 359 4.3 7.8 0.00 0.08 0.08 90 1014.1
20260503194156 71 50 5.2 7.8 0.00 0.08 0.08 89 1014.1
20260503193653 72 63 1.7 1.7 0.00 0.08 0.08 89 1014.3